Content
SEND FEEDBACK

Daily
Averages
Monthly
Summary
United States of America

ANN ARBOR, MICHIGAN


Home > North America > United States > Michigan
Elevation: 759 feet     Latitude: 42 17N     Longitude: 083 43W

WEATHER
 
SELECT A DAY
Number of Records: 204,307;   Date Range: 1/1/95 - 9/14/14
 
SHARE

PRINT THIS DATA

[ ← Previous Day ]
WEATHER ALMANAC - SEPTEMBER 26, 2013
[ Next Day → ]
[ °C ]   °F
Weather ElementAverageHighLow
Temperature49.6 °F75 °F (2:53 pm)39.2 °F (5:08 am)
Dewpoint43.8 °F52 °F (9:53 am)39 °F (5:53 am)
Humidity84.5 %100 % (3:42 am)37 % (3:53 pm)
Barometer30.07 in30.15 in (11:39 pm)30.01 in (1:53 am)
Wind Speed1.4 mph8.1 mph (12:53 pm)
Weather ElementAverage
Visibility4.9 mi
Wind DirectionNNE (15.1 °)

Weather ElementTotal
Precipitation---
Heating Degree Days7.9 (Base 65)
Growing Degree Days7.1 (Base 50)
Averaged from 49 records on September 26, 2013
WEATHER CONDITIONS BREAKOUT
WIND DIRECTION BREAKOUT
WEATHER BY HOUR - SEPTEMBER 26, 2013
[ °C ]   °F
Local TimeTemperatureDewpointHumidityBarometerVisibilityWind DirectionWind SpeedGust SpeedPrecipitationEventsConditions
1:53 AM45.0 °F43.0 °F93 %30.01 in10.0 miNNE (30°)3.5 mphClear
2:53 AM44.1 °F42.1 °F93 %30.01 in10.0 miCalmClear
3:34 AM44.6 °F42.8 °F93 %30.01 in1.8 miCalmClear
3:42 AM42.8 °F42.8 °F100 %30.01 in2.5 miCalmClear
3:47 AM42.8 °F42.8 °F100 %30.01 in0.8 miCalmClear
3:53 AM43.0 °F42.1 °F97 %30.02 in0.5 miCalmFogFog
4:09 AM42.8 °F41.0 °F93 %30.02 in2.0 miCalmClear
4:20 AM42.8 °F41.0 °F93 %30.02 in1.2 miCalmClear
4:26 AM42.8 °F41.0 °F93 %30.02 in2.0 miCalmClear
4:30 AM42.8 °F41.0 °F93 %30.02 in1.2 miCalmClear
4:39 AM42.8 °F41.0 °F93 %30.02 in0.5 miCalmFogFog
4:46 AM42.8 °F39.2 °F87 %30.02 in2.5 miCalmClear
4:53 AM43.0 °F41.0 °F93 %30.03 in1.5 miCalmClear
4:55 AM42.8 °F41.0 °F93 %30.02 in0.8 miCalmClear
5:08 AM39.2 °F39.2 °F100 %30.03 in0.2 miCalmFogFog
5:13 AM39.2 °F39.2 °F100 %30.03 in1.8 miCalmPartly Cloudy
5:20 AM41.0 °F39.2 °F93 %30.03 in10.0 miCalmScattered Clouds
5:29 AM42.8 °F41.0 °F93 %30.03 in2.5 miCalmMostly Cloudy
5:33 AM42.8 °F42.8 °F100 %30.04 in1.2 miCalmMostly Cloudy
5:41 AM39.2 °F39.2 °F100 %30.04 in0.2 miCalmFogFog
5:53 AM41.0 °F39.0 °F93 %30.04 in0.2 miCalmFogFog
6:48 AM41.0 °F39.2 °F93 %30.06 in1.5 miCalmMostly Cloudy
6:50 AM42.8 °F39.2 °F87 %30.06 in4.0 miCalmMostly Cloudy
6:53 AM42.1 °F41.0 °F96 %30.06 in1.5 miCalmMostly Cloudy
6:59 AM42.8 °F41.0 °F93 %30.06 in0.8 miCalmMist
7:08 AM42.8 °F41.0 °F93 %30.06 in1.2 miCalmPartly Cloudy
7:10 AM41.0 °F41.0 °F100 %30.06 in3.0 miCalmPartly Cloudy
7:28 AM44.6 °F42.8 °F93 %30.07 in1.8 miCalmClear
7:40 AM44.6 °F44.6 °F100 %30.07 in0.8 miCalmClear
7:53 AM44.1 °F44.1 °F100 %30.08 in1.0 miCalmClear
8:01 AM44.6 °F44.6 °F100 %30.08 in10.0 miCalmClear
8:53 AM53.1 °F51.1 °F93 %30.10 in10.0 miNE (40°)3.5 mphClear
9:53 AM62.1 °F52.0 °F70 %30.11 in10.0 miNNE (30°)3.5 mphClear
10:53 AM68.0 °F51.1 °F55 %30.11 in10.0 miNE (50°)6.9 mphClear
11:53 AM71.1 °F48.9 °F45 %30.11 in10.0 miVariable3.5 mphClear
12:53 PM72.0 °F48.0 °F43 %30.11 in10.0 miEast (100°)8.1 mphClear
1:53 PM73.9 °F48.0 °F40 %30.09 in10.0 miENE (60°)5.8 mphClear
2:53 PM75.0 °F48.0 °F38 %30.08 in10.0 miEast (80°)6.9 mphClear
3:53 PM75.0 °F46.9 °F37 %30.08 in10.0 miVariable6.9 mphClear
4:53 PM73.9 °F46.0 °F37 %30.08 in10.0 miEast (90°)6.9 mphClear
5:53 PM73.0 °F48.0 °F41 %30.09 in10.0 miSE (130°)8.1 mphClear
6:53 PM68.0 °F48.0 °F49 %30.11 in10.0 miSE (130°)5.8 mphClear
7:53 PM57.9 °F52.0 °F81 %30.12 in10.0 miCalmClear
8:53 PM50.0 °F46.9 °F89 %30.13 in10.0 miCalmClear
9:53 PM46.9 °F46.0 °F97 %30.14 in10.0 miCalmClear
10:53 PM50.0 °F48.0 °F93 %30.14 in10.0 miCalmClear
11:39 PM46.4 °F44.6 °F93 %30.15 in1.2 miCalmClear
11:49 PM48.2 °F46.4 °F93 %30.15 in2.0 miCalmClear
11:53 PM46.9 °F46.0 °F97 %30.15 in7.0 miCalmClear
Hourly data recorded from KARB, located miles away from Ann Arbor, Michigan







STORIES FROM OUR PARTNERS